Weather in Suhum

Ghana     6°01′59″N   0°27′26″E
temp.,
°C
wind,
m/s
gust,
m/s
humid.,
%
clouds,
%
prec.,
mm/h
press.,
hPa
HPBL,
m
12 may, wed
wed1200:00+23sw12910 0.0 101362
03:00+23wsw13955 0.0 1012115
06:00+22w11967 0.0 101348
09:00+29sw23625 0.0 1014899
12:00+34ssw224413 0.0 10121735
15:00+34s334178 0.0 10092000
18:00+25s37833 1.3 1011211
21:00+23ssw14969 0.6 1013193
13 may, thu
thu1300:00+23sw129712 0.6 101360
03:00+22wsw249824 0.0 1011142
06:00+22w129823 0.0 101269
09:00+28sw24644 0.0 1012753
12:00+34sw224127 0.0 10101596
15:00+35s32377 0.0 10072183
18:00+25s37795 0.8 1009206
21:00+23ssw14947 0.3 1012174
14 may, fri
fri1400:00+23wsw149822 0.3 1011170
03:00+23w11979 0.0 101021
06:00+22w11978 0.0 101148
09:00+29sw236714 0.0 1012866
12:00+35ssw234329 0.0 10092002
15:00+33s544825 0.0 10071242
18:00+28s47695 0.1 1009587
21:00+24ssw269340 0.1 1011308
15 may, sat
sat1500:00+24sw129760 0.2 101156
03:00+24wsw139710 0.1 1010112
06:00+23wsw119818 0.1 101241
09:00+30sw226325 0.0 1013959
12:00+35ssw234236 0.0 10101953
15:00+32s465252 0.0 1008776
18:00+25s378357 0.9 1010247
21:00+24ssw259739 1.1 1012220
16 may, sun
sun1600:00+23wsw1298100 1.1 101275
03:00+23w1398100 0.0 101094
06:00+23wnw119887 0.0 101137
09:00+29w226712 0.0 1012813
12:00+34ssw224325 0.0 10101780
15:00+32s465370 0.0 1008634
18:00+25s38865 1.1 1010364
21:00+24ssw139646 0.6 1012137